Theta_e
312 312 312 312 311 309 311 315 304 317 314 303 301 299 305 310 316 317 317 315 314 310 310 308 307 307 311 318 317 311 309 301 297 301 307 310 304 298 296 291 289 290 290 291
312 312 312 312 311 310 306 309 310 318 312 298 297 302 308 310 313 315 314 314 315 314 310 305 311 312 316 317 315 309 308 300 293 294 298 305 304 302 298 296 293 290 288 290
312 312 312 312 311 310 306 311 307 310 306 303 300 299 302 310 316 316 317 314 315 310 308 311 309 311 317 320 317 318 314 302 297 291 295 300 299 302 300 295 289 290 293 297
313 312 312 312 311 310 307 314 307 317 305 303 301 303 307 309 310 316 315 311 312 309 305 308 308 314 313 316 317 314 309 298 303 304 306 306 302 301 300 295 294 291 295 299
312 312 312 312 311 310 313 312 318 321 314 313 308 307 307 310 313 313 312 311 313 311 306 306 307 311 308 309 312 310 307 298 303 300 306 307 302 303 304 299 299 301 301 298
312 312 312 312 312 311 315 322 328 322 312 310 308 310 312 314 315 317 317 316 313 311 310 310 311 312 312 312 308 307 306 302 300 296 304 305 298 302 302 301 304 303 298 300
312 312 312 313 313 312 309 315 323 319 311 310 310 314 315 314 314 313 316 316 313 315 319 312 311 313 312 312 310 310 306 305 300 297 300 289 303 310 308 305 306 306 302 301
311 312 312 313 313 313 307 316 322 318 312 315 312 312 312 315 313 314 315 316 322 321 316 306 303 304 304 309 313 310 310 304 298 295 293 300 306 309 306 302 300 305 300 300
311 312 312 313 313 313 308 313 325 321 313 308 315 314 312 311 311 312 316 321 320 317 313 308 298 297 301 303 307 312 310 307 301 297 292 291 304 313 314 309 293 302 300 298
312 312 313 313 313 314 309 313 323 318 309 313 316 312 310 317 316 311 314 314 316 315 305 302 298 298 305 297 300 300 302 301 297 293 294 300 309 312 314 292 292 300 299 298
311 312 313 313 314 314 310 315 326 323 315 317 319 323 315 317 316 310 313 313 313 309 305 303 300 296 298 298 301 301 300 297 294 296 293 292 311 309 300 302 299 299 300 298
310 311 312 313 314 314 314 316 332 336 324 321 324 324 328 322 321 317 317 314 312 310 307 304 302 301 300 299 296 308 300 301 298 298 298 306 307 305 305 301 299 300 299 300
310 311 312 313 314 314 313 311 318 327 321 320 319 319 324 327 324 327 316 318 319 317 320 310 305 300 303 298 298 304 306 310 301 303 303 304 303 303 301 302 301 301 302 302
310 311 312 313 313 313 314 312 322 323 323 312 315 326 318 323 325 325 321 320 321 318 313 308 306 302 307 300 304 302 305 306 302 302 304 304 304 303 302 302 303 302 301 301
310 311 312 312 313 312 312 312 316 323 318 312 310 316 319 319 317 321 321 317 315 311 309 306 307 311 305 304 306 302 306 302 299 296 303 301 301 303 305 303 303 302 301 300
310 312 312 312 312 312 321 321 324 318 324 315 307 317 316 316 316 314 313 311 311 310 306 306 310 311 306 301 299 305 305 304 304 301 303 302 303 304 305 302 302 303 301 300
310 310 310 310 311 312 319 315 320 312 324 316 308 307 315 317 314 314 313 313 311 308 308 308 308 309 306 301 298 306 310 307 305 304 304 302 303 301 303 303 304 305 303 302
309 309 310 311 311 312 315 323 314 314 321 318 307 310 311 314 309 308 313 310 310 311 307 311 312 312 306 298 304 307 313 311 306 305 305 303 304 303 303 304 303 301 300 300
309 309 310 313 314 314 320 322 316 319 317 310 308 304 302 312 309 310 308 310 304 310 306 308 309 304 299 302 306 309 311 306 305 307 306 304 303 303 303 302 302 299 298 299
311 314 315 310 318 320 321 318 311 316 317 315 306 310 306 310 308 305 307 307 307 305 306 309 305 305 308 311 313 315 313 312 307 302 301 302 302 303 303 304 302 300 300 299
316 313 314 318 319 316 314 310 307 307 306 309 309 307 303 310 304 302 306 303 304 302 303 303 299 299 306 311 311 314 316 309 308 309 306 306 305 303 303 303 304 304 303 302
308 306 310 316 315 305 305 302 305 306 303 307 305 306 308 308 309 305 307 305 306 300 308 304 296 303 307 311 313 313 309 310 310 312 311 308 308 306 305 305 306 303 304 304
310 318 314 304 304 295 302 300 302 302 307 307 305 303 307 310 309 305 304 303 300 308 304 299 300 305 309 310 313 309 310 310 310 310 311 313 312 312 310 307 307 306 305 305
317 306 292 301 301 303 302 301 303 306 305 304 303 302 303 305 305 306 303 304 306 299 296 297 302 306 308 312 310 309 308 309 308 309 309 312 311 310 310 311 308 309 307 308
309 305 296 302 304 304 304 306 305 306 305 304 301 301 302 302 305 305 302 301 298 298 298 301 308 312 311 308 310 309 309 308 308 310 312 312 309 308 308 310 310 310 309 309
309 307 303 303 304 303 304 305 304 307 307 308 303 300 301 301 304 302 300 298 296 298 303 307 309 309 308 309 309 309 311 309 308 308 308 308 308 307 307 309 308 308 308 308
308 302 305 304 304 303 304 304 304 307 307 304 305 303 301 304 301 300 302 298 302 304 307 308 309 308 308 309 310 312 309 307 309 306 308 308 309 309 308 305 305 306 308 309
Wind_Speed
17 17 17 18 20 27 3 2 4 4 3 5 2 4 5 4 2 3 2 5 2 6 8 4 4 8 7 4 3 5 3 4 3 4 5 2 2 3 5 6 5 1 4 6
17 16 16 16 16 14 4 2 3 4 6 3 3 5 4 6 8 8 4 6 6 2 1 1 5 6 5 2 4 4 3 3 4 9 7 6 2 1 3 4 3 3 4 6
17 16 16 15 13 9 1 2 4 6 5 1 7 3 7 2 4 6 6 3 3 4 5 7 2 2 5 3 3 7 4 2 6 6 7 3 5 4 3 5 4 3 5 6
17 17 16 16 14 11 2 2 3 3 4 6 7 5 6 3 6 5 6 4 3 10 5 3 2 2 3 5 5 4 5 2 2 6 6 5 6 2 2 3 6 6 6 10
17 16 16 17 17 10 2 3 2 5 3 10 12 10 5 4 1 5 4 5 14 19 5 4 7 5 1 3 1 2 1 3 2 5 7 8 1 8 3 6 11 8 6 1
16 16 15 15 17 10 3 4 4 4 6 5 6 5 3 8 6 4 6 3 12 20 2 3 3 5 5 5 9 6 3 2 2 4 6 7 4 7 7 4 8 4 5 8
16 16 14 13 11 9 1 4 1 4 2 5 2 3 4 10 8 2 2 7 9 9 9 4 5 8 5 8 4 4 3 2 2 3 5 4 1 3 7 6 5 6 6 5
17 16 14 13 10 6 2 3 1 3 3 4 5 9 1 5 11 3 4 8 4 6 6 5 5 6 7 4 2 3 4 5 4 3 1 1 1 3 2 1 2 5 7 5
17 16 14 13 11 9 3 4 3 3 6 3 8 4 3 2 5 9 6 4 5 2 2 3 4 4 4 3 3 5 8 8 6 2 2 2 3 4 5 3 2 2 6 3
17 17 15 14 11 10 3 4 2 5 4 3 5 3 6 4 3 3 5 7 8 4 2 3 1 1 1 2 2 3 3 4 4 2 1 5 8 7 2 1 8 2 5 4
17 17 16 14 11 10 2 5 5 5 3 2 7 7 4 3 2 4 4 3 3 3 2 3 1 2 2 0 3 3 4 5 2 2 2 3 4 3 0 4 0 6 5 5
18 18 16 14 11 8 1 3 2 3 3 5 6 8 16 10 10 5 3 3 3 2 4 2 2 1 0 2 2 4 4 5 5 7 6 4 3 6 3 4 5 5 6 5
18 18 16 13 11 8 2 3 4 3 4 5 4 3 4 7 7 11 3 3 4 0 4 4 3 1 4 2 1 3 7 2 3 3 2 4 5 3 3 4 5 5 6 6
19 18 16 14 10 7 4 3 2 2 3 5 8 3 4 7 8 9 6 4 2 3 4 2 3 2 2 1 3 4 3 3 2 3 4 3 2 2 6 5 11 10 7 6
18 18 17 15 11 8 6 3 4 2 5 5 3 3 4 1 3 2 3 4 3 2 2 3 1 0 3 2 4 4 2 1 3 3 5 4 3 4 7 9 7 6 7 4
18 18 17 14 12 9 1 4 1 2 2 5 2 5 4 4 1 1 2 0 2 3 4 2 1 3 4 4 3 3 5 4 5 2 0 6 5 7 6 8 7 6 6 6
19 18 16 13 10 2 3 6 4 3 0 4 2 3 3 7 3 1 0 2 1 3 2 4 3 6 5 3 2 4 5 2 5 3 6 3 3 5 8 8 8 8 6 4
19 18 15 12 9 7 4 2 3 4 3 3 3 3 2 3 1 2 1 0 3 4 3 4 3 3 3 3 4 4 4 4 2 5 5 7 6 6 7 6 5 3 0 5
20 16 12 2 2 1 4 4 3 1 4 2 2 4 3 2 2 2 3 3 3 2 4 2 5 4 4 4 5 7 6 2 5 6 6 4 2 6 7 6 5 5 5 5
14 2 4 4 4 6 4 6 4 4 3 3 2 1 1 4 2 2 1 2 3 3 1 3 4 1 4 6 6 9 8 7 6 3 3 3 4 3 4 8 5 8 7 4
4 4 1 4 6 4 4 2 2 1 4 1 2 3 1 2 2 3 2 2 1 3 2 6 4 4 4 4 12 11 5 8 7 6 7 7 5 5 5 4 8 7 7 6
1 2 4 4 4 4 2 2 3 4 2 3 2 3 3 4 3 3 3 3 4 3 2 5 2 5 5 6 9 9 8 7 9 8 4 4 6 6 6 5 7 7 7 6
2 0 3 4 2 7 2 2 4 3 3 4 3 4 1 5 4 2 3 4 2 5 4 3 5 4 4 6 5 5 5 6 5 6 5 6 6 5 1 1 5 8 6 7
2 2 5 2 3 2 2 4 4 4 2 2 2 2 1 2 3 1 3 3 5 4 3 3 3 5 6 6 3 4 7 8 8 8 5 4 4 3 2 3 4 5 5 8
1 3 1 1 2 1 2 2 4 4 1 3 4 3 3 3 3 4 5 5 3 3 3 3 4 6 6 3 3 5 6 6 5 3 1 1 2 2 4 3 5 2 5 7
1 2 4 3 6 4 4 3 2 3 2 2 3 1 2 1 3 6 4 3 0 3 3 4 3 4 5 5 6 7 5 4 5 4 3 5 5 5 4 5 6 5 5 5
1 1 1 4 3 2 2 2 2 2 4 1 1 1 0 2 4 2 3 4 3 3 3 3 5 7 7 7 7 6 7 5 7 4 6 5 3 2 2 5 6 6 6 6
Wind_Direction
340 337 339 341 344 335 96 356 20 290 106 82 152 182 205 237 203 127 187 134 101 205 169 265 266 212 228 37 92 101 106 161 293 284 299 241 215 153 115 118 285 208 154 260
337 337 340 344 347 12 334 27 272 343 94 147 281 294 255 221 203 144 271 204 158 223 203 238 200 249 286 69 47 86 28 11 335 340 350 346 29 221 136 124 85 242 137 256
335 338 341 344 337 344 86 61 11 317 47 96 149 216 272 245 146 108 182 235 88 108 263 220 342 339 354 84 90 70 78 139 176 210 237 223 294 323 150 114 105 218 196 167
335 342 343 343 336 348 135 87 257 224 305 317 239 127 350 25 10 45 46 67 329 183 212 105 256 325 9 359 56 39 122 222 240 257 256 290 257 329 146 152 196 157 203 176
336 343 348 345 339 7 39 85 48 5 22 342 66 16 345 341 66 7 69 14 353 326 110 145 202 173 211 194 14 264 177 256 356 304 309 337 181 20 4 52 12 34 76 272
336 345 350 349 344 353 13 308 330 108 322 2 71 342 1 358 326 77 95 76 3 298 34 52 124 157 126 169 158 202 148 158 54 281 324 325 22 357 57 53 30 98 210 224
335 346 348 348 355 26 280 259 356 64 35 64 111 152 82 23 6 296 27 110 183 240 322 73 62 50 78 86 82 137 179 122 105 274 1 11 352 304 63 79 22 355 71 102
336 342 343 340 347 354 255 283 88 92 135 165 148 33 10 67 1 9 209 231 210 346 302 55 37 345 10 334 7 123 163 114 67 69 354 266 296 337 10 72 38 11 84 88
334 338 340 338 339 333 253 249 227 119 124 238 149 139 308 58 93 316 263 315 314 42 29 85 175 199 220 304 351 39 59 65 104 14 93 244 250 247 202 305 248 59 100 122
333 334 338 336 336 321 295 279 249 94 102 233 131 188 179 208 130 217 297 353 342 56 50 68 76 187 284 139 240 198 61 34 113 145 191 297 255 279 144 225 237 108 105 113
330 331 334 330 329 313 314 268 226 120 111 258 181 190 123 246 95 142 295 11 258 11 52 103 243 126 241 120 249 191 149 132 160 97 210 291 356 35 214 212 123 120 116 126
327 328 326 328 318 306 13 294 321 124 123 218 203 195 195 202 176 128 286 227 264 177 87 73 112 203 155 153 289 20 51 170 179 171 220 238 314 132 162 145 135 164 133 141
324 321 319 323 308 301 213 276 289 38 89 338 36 279 172 229 171 193 160 274 211 299 165 161 183 105 127 97 306 79 345 89 85 96 303 181 139 93 78 131 140 109 105 121
316 315 318 315 304 301 241 221 228 113 85 108 274 271 224 164 172 194 182 167 61 122 91 107 98 113 142 109 141 95 235 20 44 6 11 56 330 202 158 96 94 95 87 106
312 317 316 312 310 300 234 239 244 211 142 183 256 338 269 214 104 110 63 62 73 97 58 72 144 150 67 25 82 22 349 232 102 225 272 139 307 78 92 90 99 113 119 117
317 315 312 311 312 310 182 31 291 336 139 105 160 267 196 227 137 285 269 256 149 122 123 127 32 37 99 93 101 274 308 103 145 183 249 112 135 112 125 125 147 160 165 177
314 309 307 302 297 298 136 187 210 27 345 92 41 310 260 189 167 300 296 358 38 101 78 52 67 1 49 65 101 297 6 98 121 111 98 56 223 163 171 150 177 180 215 193
311 306 297 288 277 268 335 285 230 162 98 87 120 254 15 160 224 256 161 10 30 22 119 33 58 41 39 43 263 272 317 341 171 157 172 189 176 150 176 180 192 214 181 171
306 294 287 290 37 55 244 207 131 129 128 138 82 139 232 354 345 293 13 90 66 318 80 56 72 356 30 253 277 309 330 344 122 64 57 87 139 204 221 207 234 139 182 188
306 167 54 346 246 316 29 7 23 7 352 43 72 262 351 93 10 313 61 36 155 98 246 90 71 262 253 273 298 311 264 241 121 101 318 256 220 194 191 225 222 184 197 208
31 25 301 256 329 44 35 335 93 299 25 23 228 160 151 307 98 231 187 187 140 94 225 95 21 318 264 309 330 321 276 235 219 215 215 220 173 226 230 229 179 188 195 206
260 264 271 307 36 39 58 276 332 60 196 345 90 268 194 280 107 80 346 78 29 81 103 85 162 254 287 333 314 331 356 33 31 16 335 265 209 219 224 220 194 202 200 218
159 71 24 53 304 39 358 43 344 29 2 337 350 344 341 343 45 60 77 79 204 122 65 148 218 260 296 292 297 325 353 22 26 11 11 58 57 52 26 317 151 217 201 234
65 107 341 126 347 52 167 163 183 238 114 357 43 320 117 300 20 169 125 220 64 69 79 207 241 236 253 284 299 6 328 335 336 329 345 67 135 162 329 250 254 258 281 256
298 96 332 210 223 55 102 81 61 337 10 45 359 352 91 320 40 23 48 39 75 125 200 220 226 233 229 250 276 290 297 312 310 300 102 250 352 257 270 268 263 296 325 304
17 51 28 339 66 9 47 53 29 303 332 30 60 347 48 330 64 53 26 57 29 231 216 211 195 213 221 232 251 270 272 263 223 252 253 274 276 265 251 291 319 303 272 271
340 359 62 114 109 156 241 145 263 285 62 323 354 55 10 43 65 72 143 189 213 208 228 213 197 202 225 239 254 260 279 284 248 249 252 251 276 224 276 313 297 312 300 281